Theta_e
308 308 308 308 308 308 309 309 309 309 310 310 310 311 312 312 313 313 315 317 318 322 325 329 330 330 330 329 329 330 332 333 332 331 332 330 331 329 327 326 325 324 324 324 325
308 308 308 308 308 308 308 309 309 309 309 310 310 311 311 312 312 315 317 318 316 318 324 330 330 329 329 329 329 330 332 331 330 330 330 330 330 329 329 327 326 324 324 323 323
307 308 308 308 308 308 308 308 308 309 309 309 310 310 311 312 316 319 320 318 318 315 322 328 329 329 329 329 329 330 332 330 328 327 327 329 328 328 328 328 326 325 324 324 323
303 303 305 307 307 308 308 308 308 308 308 309 309 310 311 311 318 321 318 317 315 314 320 323 326 328 330 331 329 331 330 328 326 325 327 329 328 328 327 326 325 323 322 323 323
309 307 304 303 304 306 307 308 308 308 308 308 308 308 309 317 316 316 317 318 317 314 320 322 325 327 331 330 329 330 329 327 325 326 328 328 327 327 326 325 324 323 323 323 323
308 306 308 307 304 303 303 305 307 308 308 308 308 308 308 315 314 315 316 320 325 321 320 322 325 327 328 329 329 328 329 327 327 327 328 327 328 326 326 325 324 324 324 323 323
309 308 308 305 308 308 305 302 303 304 306 308 309 308 313 314 314 315 314 315 317 318 322 321 322 325 326 328 327 328 328 328 328 327 328 327 327 328 326 325 325 324 324 323 324
309 308 308 308 305 307 308 309 306 302 302 305 308 308 315 314 314 314 316 321 321 321 318 322 321 322 326 326 327 328 329 330 329 329 328 326 328 329 327 326 326 325 325 325 324
307 308 309 308 308 306 306 308 309 308 304 302 305 313 315 315 314 314 314 315 315 319 320 321 322 321 324 327 328 329 330 330 329 329 329 327 328 329 328 327 326 325 325 325 324
305 306 307 307 308 308 305 307 308 308 305 305 314 318 317 315 315 315 315 315 315 316 321 321 323 325 326 328 329 330 331 330 329 330 330 329 329 329 328 327 326 325 326 326 325
304 303 304 306 307 308 307 310 313 316 315 314 316 314 316 315 315 315 316 316 316 316 320 321 325 326 327 328 328 329 329 329 329 330 329 330 329 329 329 328 327 325 325 326 326
302 303 303 304 306 307 307 310 312 312 316 319 317 316 316 316 317 315 318 317 316 320 320 326 326 326 326 327 327 329 329 329 329 329 330 330 330 329 327 326 326 325 325 327 327
295 302 303 303 304 306 309 310 311 310 313 314 314 317 316 316 316 318 317 318 318 319 322 326 327 326 326 327 328 329 329 329 329 330 330 329 329 328 328 327 326 325 326 327 327
301 299 303 303 304 309 310 310 309 310 315 317 317 316 316 316 317 316 318 319 320 319 322 325 326 327 326 327 328 329 328 328 328 330 330 328 329 328 328 327 326 326 325 326 327
305 298 301 303 308 311 310 308 308 310 318 321 320 317 317 317 318 317 317 319 321 320 322 324 325 326 327 327 328 328 328 327 328 329 329 328 329 328 327 326 325 325 325 326 328
305 301 301 304 305 308 310 308 308 317 318 320 320 320 319 318 318 319 316 318 320 321 323 323 324 326 327 327 327 327 327 326 327 328 329 327 328 328 326 326 325 326 325 328 328
304 304 299 305 308 307 309 309 314 316 318 321 321 321 320 320 319 320 319 320 323 322 324 324 325 327 328 328 327 326 327 328 329 331 330 328 327 327 326 325 325 326 328 329 327
303 305 301 302 306 306 308 311 314 315 319 321 321 321 321 321 320 320 320 321 322 323 324 325 326 327 328 328 327 326 326 328 329 330 329 328 328 328 325 325 325 326 328 330 327
303 305 303 304 305 306 308 313 313 316 318 320 321 322 322 322 321 321 321 321 322 324 325 326 327 326 327 327 327 326 327 327 328 328 328 329 328 327 325 326 327 328 331 331 328
304 304 303 303 305 306 307 310 310 312 314 318 320 321 323 322 322 322 323 322 322 323 325 327 328 326 327 327 326 326 327 328 328 329 331 329 328 327 327 328 332 332 331 330 327
304 303 304 304 305 306 307 309 309 310 312 314 318 320 322 323 323 323 323 323 322 322 324 326 328 328 328 328 327 325 325 327 328 328 329 330 329 328 327 330 333 333 331 328 326
301 306 305 304 306 304 307 308 308 309 309 312 313 315 319 323 324 323 323 324 323 323 323 326 328 330 328 328 327 326 325 327 328 329 328 329 329 327 327 330 331 331 330 327 326
304 305 305 306 309 308 307 307 307 310 310 311 312 313 317 320 323 324 324 324 323 323 325 327 328 330 330 328 327 327 326 326 328 330 330 329 329 327 328 330 330 331 330 327 326
302 308 304 304 303 307 309 308 308 309 309 310 312 312 313 317 321 324 324 323 323 323 325 329 329 329 330 330 327 327 325 326 327 330 329 329 329 328 329 329 331 331 330 328 326
303 304 304 306 306 306 305 307 309 307 309 309 311 311 313 318 321 323 323 324 323 322 326 331 330 327 327 327 326 327 326 325 327 327 329 329 328 329 329 329 329 331 331 329 327
301 303 303 304 303 305 306 306 307 307 308 309 309 311 313 316 320 322 322 325 324 322 324 330 332 327 326 326 326 327 327 326 325 326 327 328 329 328 327 327 328 331 331 330 328
302 301 301 302 306 305 306 306 306 307 306 308 309 310 311 313 312 315 317 320 325 323 327 328 328 330 327 325 325 327 327 327 326 325 327 328 328 328 327 328 328 329 330 330 329
Wind_Speed
20 20 20 20 19 18 19 19 19 19 20 18 18 17 18 18 19 22 22 16 19 16 19 19 17 17 19 20 21 16 13 15 18 16 10 14 12 5 4 12 8 7 9 4 5
22 22 22 22 21 20 20 19 19 19 19 19 20 19 18 20 21 26 26 27 17 22 19 25 23 20 22 22 24 19 13 20 15 14 12 18 19 20 7 11 10 10 10 7 8
24 24 24 23 23 22 22 21 21 19 20 18 17 18 16 17 19 24 19 16 22 25 25 24 22 22 25 25 25 23 18 18 18 18 16 17 19 12 9 10 9 4 8 15 13
24 25 26 25 24 24 24 23 23 21 21 19 17 17 15 10 7 4 12 11 23 28 26 31 28 28 25 24 26 21 22 23 19 23 19 13 12 10 9 11 7 7 7 9 14
24 24 24 25 25 25 25 25 24 23 22 21 18 16 15 13 23 18 15 2 7 26 31 32 33 32 26 27 25 18 18 25 27 20 18 16 10 11 12 8 7 7 10 13 15
23 23 23 24 23 24 24 24 25 24 24 22 21 18 16 23 17 18 21 15 10 15 26 30 27 32 29 28 21 26 29 22 20 20 18 12 17 7 13 3 6 11 12 13 14
20 22 23 22 23 23 23 23 23 23 23 22 21 18 19 33 9 12 16 23 24 21 20 27 31 27 28 24 26 25 19 20 19 21 17 14 17 16 14 11 12 12 14 15 16
21 20 22 22 18 19 22 22 21 21 21 20 20 16 22 18 24 29 18 15 13 20 26 19 27 34 29 23 25 19 23 19 21 23 17 11 20 16 15 14 14 15 16 14 16
20 21 20 21 23 19 19 19 18 19 19 17 16 15 26 11 29 32 28 30 26 17 23 21 20 33 29 19 20 20 18 22 20 12 14 17 20 19 9 13 15 16 16 15 16
20 20 22 21 23 22 19 14 15 16 15 10 13 8 26 23 22 21 26 32 24 24 20 22 20 19 19 19 21 21 23 20 17 14 13 16 19 19 19 19 19 21 16 15 18
18 18 21 23 21 20 18 12 7 8 24 21 16 24 6 10 11 12 21 24 27 25 24 29 18 24 32 29 24 22 20 17 13 7 14 10 17 20 23 18 21 23 17 16 18
18 16 16 19 21 20 16 11 8 5 12 31 35 33 28 8 10 22 18 24 28 25 26 21 26 27 27 27 27 24 20 18 15 14 9 13 19 20 20 23 25 23 19 14 17
18 17 14 16 19 21 17 17 11 8 11 26 37 39 37 29 27 21 31 30 25 28 30 29 26 26 26 26 25 23 20 16 17 15 10 13 23 22 15 13 17 15 10 13 18
18 16 12 12 11 10 15 14 11 4 7 19 21 33 39 32 32 35 32 34 23 30 28 27 28 26 27 26 23 21 18 18 15 14 13 14 16 16 16 10 10 16 16 15 16
18 15 12 10 12 6 1 4 6 5 8 8 31 10 26 41 9 37 35 35 29 22 26 31 26 27 25 28 23 18 17 15 12 15 17 18 12 16 11 10 7 10 18 16 18
20 14 13 11 15 17 7 6 5 9 15 9 14 17 21 39 39 11 45 34 30 26 27 30 35 24 23 20 18 20 14 14 9 11 15 18 15 15 9 2 5 5 3 15 18
20 16 18 13 14 11 13 10 8 15 16 15 19 19 26 23 33 26 32 30 26 27 29 27 31 26 19 22 22 15 13 10 12 13 13 15 9 10 14 5 7 4 8 11 17
20 19 19 18 14 12 9 13 17 23 33 6 21 21 28 24 32 30 30 28 32 29 17 23 27 29 21 26 22 22 19 12 13 13 13 10 7 6 1 2 4 5 4 12 17
17 19 16 18 17 15 12 17 23 24 22 33 15 19 27 29 19 32 31 33 34 32 26 24 26 25 25 23 24 17 20 20 18 17 12 8 8 8 6 11 9 6 5 12 19
15 17 18 17 19 18 6 24 28 28 27 22 34 21 23 29 25 35 30 33 34 34 28 18 17 24 28 20 27 22 20 18 12 16 16 13 10 4 10 2 7 6 9 15 22
15 5 8 19 22 14 6 20 29 36 35 19 20 20 26 25 30 27 31 20 35 35 30 28 17 22 25 23 26 20 21 14 14 12 11 10 8 8 5 5 3 9 12 21 23
8 3 8 25 8 4 12 26 32 31 38 15 20 24 26 26 26 30 33 32 33 29 36 30 12 17 27 25 24 26 26 22 10 17 12 13 2 8 7 7 2 12 16 21 22
4 9 4 16 6 13 19 27 28 28 28 26 18 19 24 24 21 29 28 30 21 31 34 26 14 17 22 20 23 25 23 20 19 14 15 12 12 8 11 6 6 9 17 22 23
2 3 6 11 5 7 14 22 24 23 28 22 27 18 22 24 24 18 29 25 21 24 32 24 20 25 19 25 21 24 25 25 22 16 16 16 14 13 13 13 10 8 16 22 24
5 4 7 4 11 15 15 15 19 24 22 26 22 25 23 21 20 24 23 26 19 21 20 24 24 25 24 20 24 22 22 27 27 23 21 18 18 14 12 13 13 15 16 20 25
3 5 6 17 13 6 10 13 18 18 10 18 22 23 22 18 19 19 18 18 23 22 23 21 22 22 25 24 24 26 25 25 26 25 23 22 18 14 13 12 13 18 15 20 25
9 5 5 6 6 7 7 7 12 15 21 21 23 22 23 22 23 34 27 25 21 23 23 22 18 21 21 21 24 23 27 27 24 22 22 21 20 15 10 14 9 11 12 19 23
Wind_Direction
285 281 277 278 277 279 278 277 279 281 283 288 292 291 291 289 286 281 257 239 228 224 210 197 199 208 212 225 229 240 258 263 269 283 303 303 289 273 222 282 238 271 274 305 185
277 280 280 278 276 275 275 276 275 275 276 280 285 290 293 295 289 274 267 256 240 229 214 200 201 210 220 230 232 234 247 259 287 303 301 300 297 298 256 253 233 239 248 238 215
274 273 274 274 276 276 277 277 278 279 278 277 279 283 286 296 299 274 258 260 234 225 212 215 215 215 227 231 232 230 245 272 287 287 284 302 289 290 277 270 298 282 258 206 216
281 276 272 270 269 269 271 271 275 278 278 278 279 277 277 274 262 300 284 242 223 216 214 221 221 226 227 235 235 241 244 270 278 270 268 277 299 289 268 270 306 290 276 227 226
285 281 278 276 272 268 265 264 267 270 273 276 276 277 273 249 244 271 280 270 200 211 215 218 220 222 228 237 246 234 254 254 261 256 259 274 268 264 282 287 276 261 248 239 232
302 293 281 276 276 275 272 269 268 267 267 266 268 268 270 259 253 245 251 232 208 204 219 224 226 224 237 243 241 235 238 254 259 254 256 240 258 190 268 252 267 253 252 246 238
295 298 299 285 275 275 276 275 275 271 267 265 266 270 260 243 255 241 232 230 229 228 229 226 229 233 234 248 247 255 255 255 254 253 250 233 255 246 252 232 253 255 246 243 231
286 291 294 297 293 278 271 268 271 269 269 265 264 267 257 252 250 238 222 218 222 231 230 230 226 237 237 246 254 246 243 254 250 225 226 220 255 259 228 246 257 256 244 246 231
270 280 286 292 297 293 276 269 270 270 267 260 256 237 260 261 230 232 228 235 238 240 219 223 226 226 236 242 241 227 245 243 249 202 221 207 257 276 246 270 267 278 268 242 226
282 280 275 282 289 294 284 286 274 265 259 245 230 235 253 238 237 238 228 224 220 216 216 214 221 217 226 223 229 227 234 232 249 215 202 252 252 255 250 251 269 266 251 241 223
306 293 287 275 279 287 296 315 265 234 211 210 204 209 256 217 216 218 212 206 209 218 209 205 214 209 213 220 227 248 263 273 281 284 247 252 276 281 286 275 267 269 243 238 219
293 297 289 282 275 276 282 243 285 301 273 239 244 238 244 231 238 225 196 197 200 208 201 201 221 217 218 222 231 242 256 261 262 271 270 280 283 283 288 274 271 265 236 226 209
298 292 292 288 278 272 264 239 260 285 258 253 235 233 226 229 232 228 201 202 201 211 203 215 212 221 219 224 225 230 243 250 261 275 253 284 270 266 264 270 269 256 234 221 207
305 287 294 291 281 281 251 257 239 249 268 252 211 236 221 216 234 223 209 206 223 213 213 219 226 211 223 223 225 234 228 247 268 273 263 271 293 294 276 274 268 225 214 230 197
294 280 270 253 271 276 158 205 220 220 259 235 202 192 202 197 168 206 208 206 219 205 212 220 219 218 212 224 221 235 242 249 232 256 271 266 267 283 266 250 271 239 223 189 189
291 280 255 258 251 238 278 267 223 223 232 227 145 186 190 201 215 203 197 207 217 227 221 230 215 223 225 208 219 232 227 252 265 257 257 260 262 270 285 92 296 243 142 155 178
278 274 237 236 248 234 236 232 209 225 212 225 182 187 197 192 201 217 188 197 204 207 217 213 226 215 197 210 213 211 215 223 227 232 247 250 243 283 295 303 278 282 157 164 173
271 258 240 236 236 241 242 215 231 222 225 224 181 196 205 188 201 211 187 200 207 209 201 207 210 208 189 212 201 198 212 225 218 236 254 130 242 291 183 344 269 268 269 147 170
263 247 234 232 222 216 230 218 220 233 213 246 195 204 209 196 191 205 197 205 200 205 223 203 215 204 200 204 222 189 217 228 258 283 288 273 281 220 197 231 206 191 185 163 171
248 230 229 223 211 202 238 235 236 254 277 271 237 230 211 207 205 197 195 209 209 210 216 201 212 213 192 203 221 216 199 219 230 250 262 251 249 244 184 152 93 157 181 164 167
212 195 232 205 196 196 224 230 237 256 268 319 310 271 228 215 202 200 205 206 208 201 216 231 213 195 187 197 206 206 229 201 247 224 236 250 271 99 111 99 124 147 165 166 169
159 238 180 185 185 183 227 227 244 254 253 298 301 290 278 243 215 219 208 209 195 205 205 215 206 225 201 195 212 212 211 215 214 223 250 269 244 99 169 143 190 140 165 169 173
241 246 218 188 221 227 240 240 246 262 260 265 271 300 303 295 279 211 231 218 189 203 198 203 200 218 193 202 202 223 213 214 226 243 233 227 244 174 150 153 184 153 171 173 175
245 269 211 213 228 270 277 253 236 261 255 269 277 282 286 280 268 265 208 218 206 203 196 204 206 212 204 201 193 206 221 205 216 216 232 236 253 146 179 198 168 175 172 179 181
251 255 271 241 235 240 253 284 283 237 238 266 249 261 270 274 260 250 216 216 193 203 191 195 214 208 226 212 193 206 211 216 212 217 223 230 235 243 201 196 192 171 171 188 188
270 270 285 282 260 279 246 251 263 282 235 248 240 256 278 286 290 286 254 228 188 205 190 194 213 209 216 225 203 203 210 219 222 218 223 233 244 230 212 232 194 165 176 193 196
221 240 276 266 277 248 247 259 304 292 261 243 269 257 251 267 332 307 313 302 284 205 185 187 200 209 217 210 224 214 209 212 220 224 221 223 231 240 223 213 222 191 180 201 200